CAPE
232 33 6 0 0 0 0 0 0 234 188 93 47 61 110 630 924 826 1266 944 989 1001 1531 794 468 484 490 322 94 240 271 86 0 0 0 94 650 851 989 1095 1195 1163 1090 1234 1458 1736 1948 2095 2863 2758 2820 2890 3028 3093 3096 3112 3133 3136 3196 3222 3258 3213 3264 3181 3184 3206 3174 3199 3148 3033 2974 2862 2788 2809 2827 2858 2934 3042 2751 2462 2588 2726 2775 2504 2956 2428 2773 2610 2698 2713 2836 2821 2476 2468 2582 2471 2514
36 5 0 0 0 0 58 0 0 0 12 4 30 241 335 804 772 792 902 1068 1064 1244 1210 638 540 842 651 217 241 176 249 365 753 354 306 650 775 935 1103 1264 1273 1154 1152 1363 1571 1837 2004 2315 2963 2866 2797 2846 3011 2992 3045 3047 3108 3249 3229 3240 3162 3198 3232 3344 3246 3250 3252 3222 3046 3012 3011 3010 3006 2853 2837 2978 3078 2812 2675 2450 2535 2368 2368 2457 2476 2670 2616 2642 2443 2392 2578 2668 2426 2546 2335 2298 2536
6 0 0 0 0 83 12 281 5 141 21 3 40 299 900 723 942 971 1054 1132 983 967 745 530 972 1136 839 599 169 555 125 420 237 334 603 698 764 911 1157 1267 1310 1235 1446 1566 1643 1851 2097 2586 2855 2913 2714 2818 2963 3069 3012 3064 3172 3236 3393 3398 3256 3221 3361 3266 3232 3280 3189 3213 3080 3026 2904 2870 2835 2912 2926 2876 2606 2539 2515 2485 2506 2441 2491 2598 2638 2692 2536 2362 2251 2575 2418 2405 2108 2378 2335 2356 2410
6 0 0 0 0 0 215 36 35 119 90 83 0 226 535 1009 1054 1300 988 1228 1151 551 470 570 516 701 1011 245 327 314 235 226 294 403 579 697 734 991 1180 1262 1491 1404 1541 1603 1743 1955 2245 2734 2903 2912 2835 2881 2950 2904 3041 3169 3224 3292 3304 3245 3182 3262 3211 3045 3252 3228 3125 2993 3015 3092 3004 2932 2861 2568 2656 2625 2378 2493 2416 2458 2442 2402 2565 2537 2369 2528 2339 2406 2438 2465 2470 2228 1966 2029 2188 2150 2164
4 54 0 169 0 30 41 222 283 217 52 98 100 540 604 808 670 1238 1028 1225 823 500 911 804 412 467 870 386 523 817 381 296 332 378 545 753 884 1030 1174 1328 1494 1573 1564 1698 1916 2123 2335 2763 2930 2794 2801 2802 2917 2923 3000 3148 3211 3194 3173 3059 3007 3002 2969 2955 2940 3176 3160 3054 3042 2951 2975 2879 2574 2511 2622 2573 2667 2464 2444 2443 2485 2520 2534 2616 2510 2416 2418 2240 2349 2302 2363 1997 1947 1959 1797 1875 1927
0 4 59 512 481 274 242 114 170 48 25 342 137 683 904 1082 966 1003 892 1046 1115 787 770 853 308 378 572 526 498 410 211 212 333 475 626 768 943 1027 1266 1506 1554 1698 1754 1919 2032 2136 2373 2902 2774 2783 2785 2726 2714 2912 3076 3092 3098 3062 2987 2938 2949 2902 2873 2984 3034 3016 2982 2935 2904 2915 2901 2892 2744 2554 2348 2564 2653 2450 2499 2649 2439 2469 2423 2678 2662 2741 2438 2412 2330 2366 1914 1796 2030 2116 1948 1987 1933
0 119 514 534 398 325 260 123 29 39 97 280 354 979 843 1002 878 1192 868 573 522 650 753 467 305 309 493 422 464 328 479 348 464 439 709 850 1001 1201 1362 1432 1593 1721 1886 1989 2034 2170 2448 2765 2717 2659 2633 2680 2889 2998 3030 2918 2954 2944 2891 2840 2874 2914 2875 2872 2984 2988 2882 2918 2712 2510 2590 2743 2417 2477 2593 2448 2455 2690 2522 2555 2638 2385 2271 2648 2583 2514 2361 2224 2344 2244 2221 2077 2037 2061 2046 1998 2075
573 768 462 14 0 131 235 238 99 93 306 400 584 420 628 1190 858 1143 781 585 355 494 659 310 465 574 488 440 387 531 660 712 583 708 814 959 1135 1313 1393 1477 1585 1731 1897 1997 2126 2281 2692 2697 2530 2504 2745 2766 2840 2869 2837 2782 2868 2776 2636 2616 2702 2817 2924 2827 2904 2957 2932 2843 2507 2683 2698 2684 2555 2533 2685 2554 2506 2469 2557 2576 2507 2300 2301 2180 2100 2526 2584 2571 2490 2208 2340 2314 2145 2274 2161 2058 2013
509 475 284 250 240 232 150 65 15 99 303 575 790 31 209 1190 871 1002 1010 1102 774 813 654 574 393 437 525 528 631 682 650 731 740 828 867 1070 1241 1358 1429 1457 1582 1734 1893 2036 2225 2417 2282 2572 2494 2327 2574 2752 2717 2615 2727 2840 2805 2610 2481 2536 2727 2811 2810 2701 2777 2826 2798 2697 2686 2751 2776 2621 2435 2313 2456 2620 2402 2368 2624 2329 2180 2214 2208 2317 2744 2427 2252 2461 2315 2300 1942 2333 2404 2295 2274 1872 1973
511 165 255 208 215 46 23 0 11 215 533 541 168 146 639 893 654 1247 667 866 875 762 920 697 451 508 526 414 492 743 675 745 710 754 962 1059 1223 1320 1376 1409 1546 1729 1838 2059 2295 2061 2104 2491 2507 2403 2245 2508 2638 2627 2720 2763 2588 2478 2400 2433 2739 2808 2797 2771 2746 2650 2567 2513 2580 2691 2635 2407 2500 2569 2589 2630 2302 2255 2189 2341 2311 2298 2453 2627 2822 1966 2311 2436 2197 2084 2330 2143 2224 2288 2263 2146 2123
482 507 971 291 70 3 0 0 0 341 581 541 352 648 798 864 920 801 800 988 858 610 338 511 347 386 479 559 585 741 693 646 647 723 972 1016 1107 1198 1311 1417 1531 1656 1800 2082 2284 2058 2118 2216 2546 2542 2347 2588 2556 2570 2754 2644 2444 2407 2453 2399 2713 2755 2826 2802 2769 2403 2339 2321 2506 2582 2298 2538 2429 2253 2348 2406 2295 2407 2394 2409 2399 2327 2401 2553 2414 1914 1999 2393 2406 2262 2311 2107 1994 2154 2409 2417 2222
472 308 147 77 27 54 162 26 6 319 453 36 540 703 659 1127 1239 736 571 582 592 369 407 563 500 432 411 340 434 653 529 588 660 819 959 969 1025 1120 1207 1354 1481 1538 1746 2123 2265 2018 2025 2145 2224 2240 2300 2498 2322 2545 2681 2532 2368 2461 2444 2291 2529 2757 2833 2651 2552 2363 2364 2222 2268 2534 2501 2452 2357 2186 2427 2390 2360 2275 2107 2235 2088 2596 2315 2313 2409 2161 2128 2246 2198 2251 2265 2129 2169 2346 2391 2204 2305
342 197 285 99 98 39 96 7 104 558 356 322 626 831 836 1264 1253 728 731 610 680 639 480 595 400 361 322 406 719 458 538 511 664 793 811 891 1006 1048 1138 1260 1352 1501 1892 2130 2181 1929 1898 1868 1870 1690 1889 2140 2401 2594 2589 2442 2378 2414 2403 2420 2506 2588 2598 2532 2448 2488 2378 2558 2366 2616 2382 2262 2458 2311 2312 2596 2479 2240 2333 2119 2138 2322 2063 2494 2456 2032 2255 2465 2124 2376 2227 2032 2148 1938 1970 2049 1962
266 484 252 170 54 86 148 309 426 445 712 701 758 731 1133 1175 1293 952 821 696 688 825 651 450 676 503 402 355 426 403 479 499 585 654 810 913 926 950 1027 1120 1335 1684 1938 2037 2093 2013 2019 2038 1911 1940 1950 2067 2217 2555 2533 2365 2414 2444 2456 2489 2594 2541 2518 2412 2490 2553 2345 2520 2206 2500 2355 2340 2316 2342 2121 2428 2485 2151 1979 1949 2059 2375 2495 2499 2468 2166 2401 2145 2339 2307 2040 2281 2105 2208 2172 2328 2339
361 540 324 231 217 97 272 361 352 637 579 628 1084 676 1153 1376 1570 1743 1105 678 792 1600 542 541 333 306 198 310 296 334 448 454 494 727 801 807 812 906 1007 1194 1468 1692 1807 1949 2021 1872 2079 2153 2037 1934 1974 2038 2086 2027 2127 2542 2382 2423 2359 2497 2463 2550 2514 2503 2518 2546 2638 2393 2398 2314 2405 2188 2388 2370 2315 2118 2167 2080 1697 2054 2299 2569 2533 2364 2452 2314 2320 2192 2031 2210 2181 2300 2042 2035 2308 1982 1996
404 805 748 330 210 48 178 348 586 581 635 752 996 1270 1236 1309 1937 1156 1069 1887 921 1077 545 589 330 841 292 301 279 382 431 443 652 708 696 771 921 1042 1151 1297 1456 1599 1757 1895 1931 1939 2077 2085 2057 1962 1894 1896 1965 2013 2138 2232 2330 2270 2364 2416 2507 2491 2474 2436 2486 2294 2378 2080 2204 2164 2282 2456 1912 1895 2120 1990 2075 2425 2090 2304 2268 2325 2362 2394 2466 2285 2456 2216 2087 2182 2058 2045 1900 2102 2488 2509 2244
906 516 538 401 194 48 98 419 645 218 743 912 1131 1201 862 1175 1694 1312 1978 2199 889 888 1230 391 573 432 326 304 376 419 395 502 661 631 672 757 847 939 1076 1196 1360 1537 1701 1800 1783 1959 1971 2034 2041 1957 1896 1916 1956 1995 2059 2022 2394 2601 2157 2431 2551 2551 2450 2305 2331 2206 1948 1864 2111 1919 2315 2286 2183 2130 2268 2035 2276 2696 2423 2190 2273 2223 2532 2528 2590 2447 2219 2250 2088 2137 2306 2418 2214 2337 2312 2281 2153
1020 493 407 226 137 90 164 447 648 576 1029 1104 1164 1441 1216 999 1391 1263 2029 900 1012 809 750 672 450 349 339 342 411 360 371 621 621 574 569 598 656 737 836 1043 1152 1284 1492 1682 1817 1861 1931 1946 1980 1942 1896 1920 1925 1994 2016 2030 2352 2355 2220 2130 2557 2492 2181 2161 2344 2314 2358 2117 2150 2350 2681 2603 2116 2090 2052 2684 3058 3079 2565 2148 2239 2111 2580 2524 2624 2717 2185 2363 2355 2196 2276 2254 2350 2291 2814 2165 2406
606 521 445 280 31 13 337 567 906 980 1137 1218 1233 1637 1154 998 1176 1007 1087 1000 707 640 606 405 312 339 290 335 305 313 490 589 572 512 518 524 571 603 730 858 914 1118 1291 1494 1748 1928 1896 1913 1927 1921 1894 1889 1936 1979 1960 1953 2052 2129 2062 2070 2297 2294 2142 2445 1969 2020 1829 1860 2137 2323 2131 2040 2149 2218 2569 2742 2970 2453 2630 2244 2177 2111 2540 2474 2574 2611 2325 2145 2476 2515 2184 2157 2292 2895 2198 2084 2140
650 544 406 209 107 11 168 785 937 1558 1312 1420 1377 1820 1315 1274 1234 1100 967 938 682 517 477 327 321 275 299 256 230 392 488 540 494 456 456 472 483 524 634 699 746 897 1107 1254 1554 1817 1859 1912 1783 1870 1860 1864 1907 1897 1870 1782 1758 1700 1871 2027 1954 1963 1891 1894 1715 1753 1826 1889 1939 1962 1941 2003 2020 2108 2064 2326 2894 2201 2647 2632 2523 2289 2122 2170 2805 2872 2736 2493 2424 2193 2321 2709 2664 2395 2149 2070 1992
658 576 334 262 70 67 379 1168 1494 1334 1430 1451 1527 1746 1450 1565 1548 1633 1074 917 894 614 399 401 316 272 242 190 287 401 456 465 437 394 373 409 424 421 513 544 600 729 1030 1141 1407 1622 1791 1747 1677 1692 1745 1775 1821 1802 1728 1673 1698 1721 1944 1939 1826 1760 1733 1739 1717 1636 1804 1787 1861 1876 1915 1938 1905 1934 2016 2024 2090 2093 2062 2209 2360 2407 2496 2654 2779 2590 2573 2680 2555 2401 2483 2479 2360 2484 2198 2092 1905
406 481 411 336 168 109 385 1146 1252 1316 1523 1380 1508 1120 1228 1699 1224 1605 780 624 727 630 652 416 278 235 161 170 356 372 397 414 382 362 339 360 377 348 418 435 538 747 1049 1129 1296 1497 1561 1578 1585 1605 1639 1709 1762 1740 1699 1736 1790 1836 1863 1750 1705 1699 1686 1700 1724 1618 1738 1778 1791 1934 1818 1825 1947 2011 1984 1946 2026 2060 2180 2299 2352 2372 2263 2132 2284 2260 2147 2059 2323 2462 2396 2416 2386 2327 2284 2064 2715
51 11 14 167 288 36 768 1004 1151 1285 1313 1377 1119 1350 1557 1287 1160 1441 808 1046 1703 1224 958 393 280 168 57 234 357 357 354 366 352 336 325 306 294 299 343 398 590 744 1029 1046 1333 1384 1402 1496 1469 1520 1551 1659 1727 1726 1715 1814 1826 1835 1745 1705 1718 1694 1604 1671 1714 1658 1644 1695 1782 1888 1658 1772 1914 2018 1959 1916 2004 2033 2089 2154 2171 2142 2021 1885 1978 1781 1939 2053 2109 2286 2200 2318 2330 2350 2176 2197 2126
0 0 5 6 6 155 200 936 1100 1179 1192 1253 1511 1256 1180 1417 1077 1487 1046 1505 1841 1465 1143 375 212 104 112 302 330 350 340 340 336 314 316 245 188 273 322 423 588 724 935 1012 1189 1281 1467 1358 1337 1426 1491 1598 1664 1654 1697 1756 1823 1809 1735 2229 1749 1701 1587 1626 1638 1706 1688 1651 1862 2268 1790 1766 1874 1909 1824 1868 1917 1952 1973 1931 1854 1839 1869 1934 2065 2182 2118 1975 2043 2084 2230 2283 2398 2405 2389 2081 2060
0 0 0 1 6 4 3 722 1057 1148 1095 1384 1362 946 919 1329 1547 1036 1116 1401 1584 1435 835 385 330 282 202 275 312 320 336 336 327 281 210 71 104 278 345 432 605 738 845 956 1082 1193 1310 1401 1283 1347 1449 1550 1601 1599 1661 1701 1764 1758 1942 1741 1551 2186 1542 1588 1624 1772 1804 1949 2116 2125 2005 1704 1762 1697 1714 1793 1785 1802 1762 1738 1775 1822 1840 1883 2022 2118 2291 2230 2084 2078 2111 2254 2220 2219 2236 2264 2183
0 0 0 0 4 2 0 751 1018 1163 1338 1295 1201 1014 1292 1892 1432 1195 1434 1517 1539 1181 688 478 392 320 245 264 270 314 338 368 365 308 221 65 144 322 392 463 600 734 785 880 987 1108 1236 1303 1253 1288 1415 1504 1516 1571 1632 1670 1727 1673 1880 1623 1751 1948 1516 1533 1550 1693 1843 1804 1933 1897 1820 1606 1558 1514 1650 1659 1675 1691 1701 1805 1852 1928 1989 1960 2083 2110 2051 2058 2016 1949 2046 2131 1679 1923 1926 1876 2352
0 0 0 0 3 5 84 668 968 1198 1436 1177 1046 1345 1546 1305 1148 1116 1503 1699 1414 760 487 445 428 370 208 246 228 270 328 381 399 337 185 87 186 304 376 420 589 692 742 815 901 1009 1231 1223 1231 1282 1358 1503 1462 1526 1597 1627 1670 1641 1787 1619 1796 1702 1427 1487 1498 1544 1727 1774 1812 1976 1578 1742 1482 1550 1633 1665 1701 1693 1696 1768 1864 1944 2009 2070 2055 2076 1969 1961 1876 1851 1790 2100 2352 2482 2551 2313 2161
0 0 0 0 94 38 260 711 1023 1244 1280 1112 1121 1234 1245 1287 991 1058 1140 1496 1164 511 475 467 464 337 227 203 197 145 311 371 385 340 235 130 168 268 358 429 550 659 713 759 814 923 1108 1165 1182 1252 1328 1370 1403 1466 1543 1553 1589 1617 1716 1679 1590 1779 1440 1402 1477 1419 1524 1679 1763 1921 1695 1800 1991 1625 1693 1732 1733 1758 1745 1707 1775 1817 1884 1979 2060 2053 1754 1449 2133 2122 2184 2275 2436 2558 2607 2127 2027
0 0 0 0 821 710 713 809 1149 1058 1196 1110 1091 1044 1057 1005 1092 1166 1111 1024 1012 575 490 468 365 251 181 137 125 110 216 264 291 329 248 137 133 219 266 373 510 643 678 722 746 878 1030 1101 1169 1233 1272 1337 1355 1415 1492 1478 1530 1582 1650 1681 1546 1788 1528 1367 1428 1443 1401 1440 1667 1866 1871 1718 2361 1540 1681 1764 2313 1818 1828 1737 1680 1632 1592 1596 1552 1598 1876 2151 2280 2167 2263 2434 2327 2258 1835 1646 1771
0 0 0 301 669 672 699 968 1134 916 1110 1141 883 588 638 891 961 1176 1004 862 704 622 523 444 375 188 157 95 64 62 145 199 219 326 254 171 126 163 195 292 496 583 639 662 693 859 999 1064 1150 1228 1247 1294 1310 1350 1422 1393 1442 1486 1574 1658 1661 1667 1620 1412 1376 1414 1443 1333 1585 1810 1824 1864 2086 1509 1536 1657 1831 1713 1733 1767 1625 1310 1221 1344 1860 2446 2334 2172 2302 2270 2900 1929 2933 2200 1764 1584 1518
0 0 0 258 251 212 895 1010 1105 852 1074 1136 636 338 71 535 932 1068 977 878 728 672 560 489 454 233 127 95 28 33 74 145 219 311 258 188 135 120 142 297 494 573 625 607 707 838 1080 1056 1139 1218 1331 1260 1402 1260 1347 1293 1310 1364 1450 1579 1610 1559 1622 1525 1357 1331 1347 1223 1509 1701 1754 1848 2033 1726 1547 1607 1672 1619 1580 1557 1610 1606 1502 2203 2469 2284 2170 2306 2152 2322 2703 1830 1845 2019 1700 2405 1409
0 0 0 0 187 52 1058 994 909 961 959 1062 668 276 80 0 660 987 945 906 806 761 628 565 507 411 131 211 28 10 37 81 93 206 279 219 141 108 143 295 490 630 673 613 718 826 972 1072 1184 1169 1213 1223 1224 1178 1238 1206 1182 1239 1302 1518 1569 1549 1562 1554 1407 1283 1247 1091 1459 1629 1718 1734 2028 1802 1710 1820 1844 1721 1504 1554 1660 1740 2107 2332 2325 2157 2217 2031 2386 2559 2774 1843 1600 1749 1981 1069 1581
0 0 0 10 134 62 1180 1122 1017 895 988 921 655 170 72 30 505 984 887 894 899 840 700 612 554 473 379 63 43 6 14 44 68 61 98 118 126 110 150 288 484 645 727 672 741 843 950 1062 1209 1137 1184 1185 1180 1092 1097 1095 1063 1090 1156 1284 1435 1530 1500 1489 1357 1237 1190 1171 1420 1566 1660 1667 1904 1775 1744 1806 1753 1566 1560 1646 1716 1900 2462 2188 2212 2003 1874 2140 2211 2571 2523 2683 1525 1463 1116 1146 786
0 0 0 0 0 250 856 1192 1160 938 893 845 739 596 314 62 698 985 842 847 885 871 756 658 585 520 418 324 294 195 5 22 44 54 63 88 96 102 158 446 459 631 760 757 780 861 941 1035 1158 1129 1149 1161 1168 1059 993 1002 946 960 991 1116 1337 1428 1474 1419 1305 1203 1221 1276 1349 1290 1406 1495 2105 1857 1723 1618 1396 1502 1603 1711 1859 2154 2215 2123 2165 2061 1881 1740 2324 2499 2296 2461 2156 1744 1592 1427 1106
0 0 0 0 0 267 646 754 1167 1064 947 778 826 645 554 511 870 932 882 817 823 818 753 699 605 553 431 353 296 279 13 16 27 35 49 62 68 78 158 360 458 608 738 810 833 894 933 1005 1132 1125 1137 1138 1162 1035 934 922 865 872 916 1014 1135 1273 1382 1414 1379 1162 1153 1473 1394 1262 1212 1349 2536 1980 1946 1646 1335 2074 1939 1822 2078 2188 2195 2066 2040 1905 1775 2815 2635 2612 2580 2106 2040 2562 2354 2217 1873
0 0 0 0 0 0 92 308 825 1104 1050 806 732 663 604 480 883 875 926 960 798 780 734 739 684 626 485 372 302 277 257 15 14 21 34 51 52 59 121 294 452 579 697 802 870 934 955 986 1102 1134 1130 1144 1169 1070 888 890 828 828 902 1038 1111 1176 1223 1266 1317 1176 1370 1573 1638 1473 1398 1428 2230 2142 2030 1834 1525 2031 1841 1897 2122 2144 2202 2020 1948 1780 1836 2251 2520 2447 2417 2864 2015 2557 2241 2456 1975
0 0 0 0 0 0 0 0 42 997 978 850 711 690 612 531 529 885 852 1012 947 785 760 801 749 666 526 398 331 282 284 150 74 15 30 52 50 50 94 221 414 538 639 759 870 958 973 995 1082 1115 1130 1143 1142 1071 884 841 793 805 929 1003 967 973 1002 1038 1096 1239 1582 1684 1782 1666 1642 1696 2059 2215 2203 1910 1701 2508 1879 1911 2078 2151 2153 2097 1986 1772 1726 2319 2612 2498 2491 2934 2795 1550 1542 1350 709
0 0 0 0 0 0 0 0 0 728 814 740 749 668 632 598 481 752 877 941 1009 957 871 834 774 711 581 422 348 315 311 52 90 135 31 51 51 52 82 168 360 433 559 690 837 949 962 956 1032 1084 1123 1146 1107 1062 931 827 787 848 924 921 879 851 954 1119 1115 1384 1655 1834 1866 1883 1943 1864 1982 2110 2393 1934 1705 2032 1854 1967 2106 2158 2126 2111 1971 1961 1994 2995 2976 2589 2387 2237 2372 2289 1820 2001 1228
0 0 0 0 0 0 0 0 0 453 466 240 389 689 656 554 524 491 872 898 964 985 954 892 774 766 692 499 406 361 304 273 219 4 24 52 61 59 91 164 252 378 501 636 788 925 934 903 952 1025 1086 1130 1083 1046 996 854 853 880 919 908 834 836 813 1045 1054 1392 1834 1830 1906 2015 2167 1926 1924 2016 2373 2119 1726 1834 1795 1913 2097 2211 2196 2247 2356 1965 2183 2857 2831 2580 2257 2083 2060 2163 2582 2486 1177
0 0 0 0 0 0 0 0 0 224 476 326 40 125 40 40 25 313 713 899 889 925 942 877 790 798 765 635 490 431 355 289 251 104 29 46 58 62 92 156 210 291 398 560 726 883 914 865 882 948 1012 1040 1001 969 1006 939 848 869 906 830 765 696 719 1092 1188 1419 1718 1819 1943 2046 2174 1979 1889 2014 2270 2275 2071 1910 1714 1823 1938 2151 2286 2209 1965 1754 1919 2542 2757 2515 2159 2611 2343 1838 1505 1684 2294
0 0 0 0 0 0 0 0 0 251 443 99 49 25 8 131 117 268 568 808 850 865 915 908 840 822 818 721 573 471 415 332 281 35 0 28 45 54 88 161 191 251 320 478 652 803 857 856 838 880 924 947 851 865 944 958 844 818 824 766 611 526 798 987 1115 1270 1617 1940 1966 2012 2134 2090 1958 2038 2238 2413 2420 2010 1728 1701 1811 2031 2074 2039 1948 1668 1856 2221 2666 2555 2136 2251 2436 2036 1504 1562 1910
0 0 0 0 0 0 0 0 0 0 0 0 48 0 0 1 156 272 650 750 800 898 979 1002 986 897 832 784 689 585 493 406 304 43 251 3 19 31 61 134 182 230 288 406 565 712 779 824 819 828 849 843 762 790 889 876 812 798 730 646 488 330 618 942 1090 1203 1464 1897 2181 2006 2073 2149 2087 2122 2242 2438 2580 2167 1876 1665 1671 1990 2139 2194 2194 1952 1880 1994 2264 2434 2028 1949 2270 2587 2326 1479 1605
0 0 0 0 0 0 0 0 0 0 0 0 3 0 0 334 376 345 804 906 860 921 1008 1083 1077 1024 902 821 760 687 596 498 377 286 270 162 12 26 45 201 272 220 269 347 481 610 686 750 788 786 766 747 695 687 786 807 806 793 644 32 50 198 407 698 978 1144 1383 1708 2036 2036 2071 2169 2189 2238 2365 2450 2514 2478 2060 1917 1742 1795 2198 2223 2617 2121 2168 2274 2280 2385 2041 1806 1996 2677 2290 1766 1510
0 0 0 0 0 0 0 0 0 0 0 0 0 0 0 0 0 475 804 1085 1060 1016 1038 1087 1113 1074 1002 900 800 750 688 606 508 427 362 315 0 178 351 354 350 266 255 289 418 511 603 685 735 753 714 578 424 391 705 792 814 625 18 2 11 21 103 265 695 1042 1280 1720 1944 2093 2077 2184 2272 2346 2452 2466 2487 2508 2175 2052 1994 1900 2022 2325 2681 2376 2250 2252 2373 2357 2329 1807 1880 2776 2168 1700 1446
0 0 0 0 0 0 0 0 0 0 0 0 0 0 16 0 209 620 902 1131 1208 1215 1108 1049 1078 1083 1037 953 859 792 751 699 601 534 479 431 394 272 28 423 432 356 211 263 378 455 527 598 672 715 666 558 396 388 548 810 561 148 63 0 4 17 22 187 590 1057 1338 1875 1844 1948 2068 2132 2281 2412 2452 2511 2458 2475 2685 2028 1828 1806 1899 2158 3146 2778 2310 2249 2303 2342 2360 2284 2064 2303 2182 2116 1875
0 0 0 0 0 0 0 0 0 0 0 0 0 0 0 0 28 879 1005 1082 1144 1203 1188 1089 1061 1074 1056 1009 926 844 793 751 683 612 582 546 524 487 445 438 479 464 178 265 284 374 451 507 601 651 619 503 396 369 425 774 754 317 77 4 0 0 162 330 692 1008 1275 1627 1736 1859 2020 2105 2246 2367 2466 2488 2458 2498 2671 2477 2030 1988 2119 2118 2875 2977 2617 2467 2386 2358 2295 2150 1989 2128 2097 2390 2249
0 0 0 0 0 0 0 0 0 0 0 0 0 0 0 0 0 996 1128 1235 1024 1003 1059 1148 1120 1060 1046 1032 953 892 839 786 758 720 678 663 630 576 540 491 496 545 437 175 241 244 286 382 536 617 640 623 465 366 390 707 723 686 432 24 2 0 7 178 620 927 1196 1467 1600 1720 1922 2068 2166 2317 2389 2463 2483 2537 2601 2709 2450 2134 2202 2715 3014 2942 2878 2663 2497 2417 2397 2253 2326 2229 2132 2336 2864
0 0 0 0 0 0 0 0 0 0 0 0 0 0 0 0 0 207 1005 990 942 866 927 1014 1063 1045 1058 1038 1012 936 854 828 786 768 751 740 707 654 588 544 537 574 546 168 189 184 253 351 448 516 636 680 683 642 615 684 740 741 642 37 9 0 1 69 515 818 1158 1373 1499 1570 1783 1980 2081 2178 2280 2355 2405 2499 2561 2608 2810 2498 2392 2554 2838 2940 2918 2708 2618 2503 2446 2382 2254 2213 2230 2362 2258
0 0 0 0 0 0 0 0 0 0 0 0 0 0 0 0 0 0 0 21 14 235 770 712 851 905 932 958 975 967 935 865 820 786 796 786 768 717 670 626 605 614 638 441 139 146 206 319 413 462 571 658 717 716 700 726 780 788 676 278 20 3 0 8 261 611 1002 1260 1385 1456 1605 1837 1974 2047 2140 2225 2315 2372 2460 2480 2487 2507 2365 2353 2567 2687 2864 2788 2740 2672 2572 2460 2309 2216 2365 2435 2468
0 0 0 0 0 0 0 0 0 0 0 0 0 0 0 0 0 0 0 0 0 0 0 199 638 746 819 866 924 936 938 884 850 793 784 796 796 770 735 710 689 691 697 622 94 146 179 288 374 419 444 528 661 686 700 706 708 702 652 244 42 48 0 0 36 358 749 1106 1271 1377 1458 1656 1800 1892 1939 2084 2187 2249 2299 2350 2284 2356 2333 2245 2355 2413 2581 2638 2681 2663 2595 2508 2402 2278 2267 2378 2507
0 0 0 0 0 0 0 0 0 0 0 0 0 0 0 0 0 0 0 0 0 0 0 0 74 499 792 867 853 878 878 858 828 788 737 758 794 801 794 788 778 770 744 678 494 114 140 256 338 437 409 394 589 646 662 655 650 630 332 160 95 46 0 0 0 102 486 883 1134 1265 1337 1462 1638 1701 1785 1880 2012 2112 2123 2116 2086 2117 2209 2226 2236 2340 2419 2396 2509 2545 2540 2484 2448 2355 2302 2374 2433
0 0 0 0 0 0 0 0 0 0 0 0 0 0 0 0 0 0 0 0 0 0 0 0 0 36 657 895 902 859 835 826 822 787 748 718 728 756 753 790 778 774 746 668 569 215 112 210 298 377 403 371 406 550 617 621 619 586 309 218 122 113 152 8 0 42 145 549 920 1109 1193 1266 1402 1515 1622 1693 1799 1898 1926 1900 1986 2089 2048 2122 2143 2138 2222 2277 2329 2394 2406 2359 2274 2368 2442 2423 2533
0 0 0 0 0 0 0 0 0 0 0 0 0 0 0 0 0 0 0 0 0 0 0 0 0 0 390 863 919 956 918 861 826 804 782 773 774 802 781 750 766 766 711 680 606 505 234 178 260 334 376 357 381 525 505 525 491 571 513 265 159 130 140 35 0 0 1 100 567 914 1035 1096 1177 1306 1417 1522 1588 1628 1719 1792 1871 1938 1973 2013 2069 2093 2121 2177 2222 2254 2219 2150 2143 2294 2733 2646 2608
0 0 0 0 0 0 0 0 0 0 0 0 0 0 0 0 0 0 0 0 0 0 0 0 0 2 5 381 890 945 969 962 907 870 847 840 842 829 810 774 746 704 723 677 635 572 114 139 231 296 359 358 359 433 490 519 509 508 545 298 211 147 128 93 6 0 0 0 60 336 860 947 1012 1123 1230 1309 1386 1442 1530 2045 1776 1856 1920 1930 1941 1991 2031 2063 2129 2172 2129 2041 2110 2225 2587 2752 2794
0 0 0 0 0 0 0 0 0 0 0 0 0 0 0 0 0 0 0 0 0 0 0 100 0 55 144 10 185 851 966 1005 1018 1012 976 935 903 845 808 791 760 716 726 682 656 609 552 100 204 250 319 340 352 394 477 534 521 478 394 346 256 166 116 131 56 2 0 0 0 27 260 724 871 958 1136 1232 1246 1302 1375 1485 1609 1654 1742 1834 1849 1890 1946 1994 2064 2098 2082 2045 1964 2080 2273 2480 2586
0 0 0 0 0 0 0 0 0 0 0 0 0 0 0 0 0 0 79 0 0 0 0 162 228 176 351 463 96 208 926 1055 1089 1052 1025 988 932 872 823 769 776 754 737 740 690 593 557 517 215 244 286 320 361 459 545 531 535 530 464 388 304 219 161 114 108 17 0 0 0 0 21 206 518 770 878 1003 1096 1145 1188 1234 1405 1568 1625 1700 1788 1842 1873 1942 1965 2001 2038 2042 2018 1960 2062 2238 2294
0 0 0 0 0 0 0 0 0 0 0 0 0 0 0 0 9 15 0 6 3 131 0 137 230 294 279 441 146 87 553 1034 1112 1130 1090 1043 1005 947 873 835 794 758 748 772 754 674 567 520 476 242 282 479 437 509 505 494 539 556 572 444 351 215 127 86 84 37 0 0 0 3 0 16 206 473 691 796 922 1000 1050 1061 1170 1485 1552 1604 1689 1739 1770 1902 1868 1902 1954 1982 2015 1972 2031 2056 2092
0 0 0 0 0 0 0 0 0 0 0 0 0 0 0 0 57 2 50 85 62 93 276 341 336 316 318 376 1 34 248 851 1074 1130 1131 1098 1066 1028 962 890 842 790 791 818 783 705 662 592 506 203 265 514 507 534 538 514 519 531 525 492 400 243 134 62 49 44 23 0 0 0 0 0 8 159 464 677 798 884 932 966 976 1155 1425 1507 1555 1610 1608 1795 1894 1854 1856 1887 1911 1931 1939 1954 1959
Wind_Speed
3 nan nan nan nan nan nan nan nan 6 8 nan nan nan 10 12 11 2 16 18 14 17 14 7 2 5 7 7 nan 1 7 nan nan nan nan nan 5 7 8 7 6 6 7 7 7 7 7 9 10 10 9 8 8 7 6 6 6 5 4 4 3 3 1 1 1 1 1 2 1 1 2 2 2 1 2 1 1 1 0 0 1 2 1 2 2 2 1 3 3 4 6 7 9 10 9 7 8
nan nan nan nan nan nan nan nan nan nan nan nan nan 14 12 14 13 6 18 16 16 13 13 6 5 4 5 4 3 2 5 5 4 2 2 3 3 5 8 8 8 8 7 7 7 7 7 10 8 9 9 9 8 8 6 6 5 5 4 4 3 2 2 2 2 2 3 3 2 2 2 2 2 1 0 0 0 1 1 3 1 1 3 4 3 3 1 1 3 3 5 7 7 9 10 8 7
nan nan nan nan nan nan nan 8 nan 11 nan nan nan 15 14 17 10 13 20 15 13 13 11 6 4 8 5 4 5 6 6 2 1 3 3 8 8 9 9 8 7 7 7 7 7 7 7 7 7 8 9 8 8 7 6 6 6 6 5 5 4 4 4 3 3 3 2 3 3 2 2 2 2 1 1 1 0 1 2 3 4 3 4 4 3 3 4 2 1 2 4 3 4 6 11 11 10
nan nan nan nan nan nan 11 nan nan 12 nan nan nan 11 16 19 2 17 18 15 13 12 12 8 8 12 6 4 3 2 2 2 4 8 7 8 6 8 9 8 7 6 6 7 7 7 7 5 6 7 8 8 7 7 7 7 6 6 5 5 4 5 5 4 3 2 2 1 1 2 2 1 1 0 1 3 4 2 4 3 2 4 3 3 2 3 3 1 1 5 5 2 3 5 8 10 7
nan nan nan 7 nan nan nan 13 11 12 nan nan 13 12 17 16 11 18 15 16 11 12 12 10 9 12 6 3 7 4 3 4 6 6 4 1 4 7 8 7 6 7 7 7 6 6 5 7 6 7 8 8 7 6 6 6 5 5 5 5 5 6 6 5 3 2 2 1 1 0 1 0 2 3 4 4 3 4 7 2 2 3 4 3 2 2 2 1 3 5 5 6 9 10 8 7 8
nan nan nan 6 10 10 12 12 10 nan nan 12 11 12 18 9 15 17 14 16 14 12 10 10 8 6 7 8 7 2 6 6 9 4 6 5 8 8 8 7 6 6 6 5 5 5 4 7 8 8 8 8 7 6 5 5 4 4 5 5 6 6 5 4 3 3 3 1 0 1 1 1 2 3 4 4 3 5 6 4 2 3 3 3 2 1 1 2 4 5 8 10 8 8 8 8 7
nan 8 6 7 9 11 11 10 nan nan nan 12 11 11 15 2 17 14 12 14 16 13 16 8 3 1 4 6 4 3 5 5 7 6 5 9 8 8 8 7 5 5 5 5 5 4 4 7 8 8 8 8 7 6 5 5 4 4 5 5 5 4 4 4 4 4 3 1 1 2 2 2 3 4 5 5 3 4 6 5 3 3 2 1 1 4 5 3 5 6 8 11 8 8 9 7 8
7 6 8 nan nan 9 8 6 nan nan 6 12 13 9 7 8 16 14 13 15 12 12 13 7 9 5 6 8 3 4 4 4 3 5 6 8 8 8 8 8 6 5 5 6 5 5 5 6 7 8 8 8 7 6 6 5 5 5 4 4 3 3 3 4 4 4 2 1 3 4 4 4 3 4 4 3 2 2 6 5 3 2 5 5 5 1 2 2 2 1 4 7 10 8 10 10 8
6 7 6 8 8 9 6 nan nan nan 7 15 13 nan 2 12 14 14 16 16 12 13 10 8 8 6 5 3 5 4 4 2 4 8 8 9 8 8 7 8 8 5 5 5 5 4 4 7 6 8 8 7 7 7 6 5 4 4 3 3 2 2 3 4 4 4 2 1 2 4 4 3 3 3 3 2 1 1 3 3 2 1 2 7 5 1 2 1 1 1 3 6 6 7 8 8 8
6 7 6 7 7 nan nan nan nan 8 10 14 8 8 7 16 14 17 12 12 13 9 12 12 9 2 1 2 4 5 6 6 9 8 6 9 9 8 6 7 7 6 4 5 5 4 6 6 7 5 6 7 7 7 6 5 4 3 3 3 3 3 4 4 4 3 3 1 1 2 3 3 2 2 2 2 2 1 1 0 1 1 5 5 4 2 2 0 1 2 1 3 6 7 6 6 7
8 6 6 6 nan nan nan nan nan 7 11 14 6 10 15 19 17 14 14 9 11 9 8 7 8 2 5 7 9 7 7 9 12 14 9 8 7 9 6 6 5 5 3 3 3 4 5 5 6 6 6 8 7 6 6 5 4 3 3 4 4 4 4 4 4 4 3 2 1 2 1 2 3 4 2 2 3 2 1 3 3 5 4 5 2 1 2 3 2 0 2 3 5 5 7 8 7
8 6 7 nan nan nan 5 nan nan 9 12 nan 3 9 23 18 15 12 9 6 12 8 7 9 6 3 6 6 8 6 8 8 10 11 10 6 5 6 6 6 5 4 3 3 3 4 4 5 5 4 5 7 7 6 5 5 4 4 4 5 4 5 5 5 4 4 3 2 2 2 0 2 1 2 3 2 4 4 4 3 5 5 4 3 1 1 3 4 1 3 1 2 2 4 4 4 5
7 6 7 nan nan nan nan nan 11 10 12 12 5 19 24 19 17 11 10 7 9 5 6 9 5 9 7 6 6 5 7 8 9 11 9 3 4 5 5 6 5 4 3 2 2 3 2 5 4 4 7 10 7 6 5 4 4 5 5 5 5 6 6 5 6 5 4 4 4 3 2 2 1 3 3 4 5 5 5 5 6 5 3 2 2 3 4 2 4 4 1 0 2 4 4 5 6
8 6 9 5 nan nan 4 9 10 10 12 14 8 18 23 21 21 13 10 6 6 10 8 3 3 1 5 2 3 5 6 8 9 9 4 3 3 5 6 6 5 4 3 2 2 2 2 4 4 5 9 7 7 5 5 5 5 6 6 6 7 7 7 7 7 7 6 5 5 4 4 2 4 4 4 5 6 6 3 6 7 5 3 3 3 3 4 5 3 5 4 2 3 3 3 3 4
7 9 9 6 4 nan 3 8 8 10 13 7 12 18 18 22 21 19 16 8 12 13 5 7 4 3 5 6 5 6 7 9 8 5 5 2 2 4 5 5 4 3 3 2 2 2 2 3 4 6 7 8 7 7 7 7 7 7 6 7 8 8 9 9 8 9 7 6 6 5 5 4 7 5 5 5 7 7 4 5 6 5 4 4 3 4 2 3 5 5 5 4 1 3 5 5 5
9 10 8 7 5 nan 0 5 7 9 9 8 14 16 16 18 20 18 19 18 13 15 9 7 12 8 4 3 5 6 7 8 4 5 4 3 1 2 4 4 4 3 4 2 2 2 2 3 5 6 7 8 7 7 8 9 9 8 7 8 9 10 10 9 9 8 9 6 7 6 6 11 6 8 6 8 9 5 5 6 5 5 4 4 4 4 3 1 1 4 4 3 1 3 3 4 3
12 11 9 6 6 nan nan 3 6 7 7 5 8 9 13 12 18 18 18 16 9 13 15 10 10 8 5 1 10 12 7 4 4 5 4 1 3 4 5 4 4 4 4 2 2 3 3 5 5 6 8 8 7 8 9 10 10 9 9 10 10 11 9 8 10 9 8 7 9 7 9 12 11 10 12 12 11 10 7 6 6 5 4 4 4 3 0 1 2 2 3 4 4 3 5 4 4
12 9 10 7 5 nan 1 2 5 5 6 3 3 6 8 9 13 13 14 16 14 13 12 11 11 7 3 5 11 13 8 5 6 6 5 2 3 4 5 5 5 4 3 4 4 3 4 6 6 6 8 8 8 9 10 10 11 9 11 12 13 11 10 9 11 12 11 11 9 11 13 12 12 10 13 13 16 12 10 6 6 5 5 4 4 2 1 1 0 1 3 3 4 4 6 10 9
8 11 10 7 nan nan 1 1 2 4 3 3 1 7 7 11 10 11 10 8 7 10 11 10 9 7 5 5 10 12 10 6 7 7 8 8 5 5 5 5 6 4 3 4 5 4 5 5 6 6 7 8 7 9 10 11 11 11 12 11 11 10 11 12 13 13 13 11 12 13 13 13 13 13 13 12 13 9 10 7 5 5 5 4 4 2 2 1 1 2 3 4 5 7 9 10 10
7 10 7 6 4 nan 4 1 2 2 7 7 3 5 9 13 14 12 10 5 6 6 7 8 5 3 3 5 6 10 11 6 6 7 7 7 6 6 6 6 6 6 5 5 4 6 5 5 5 7 7 8 8 9 10 11 12 11 11 11 11 11 12 13 13 13 14 13 13 13 13 13 13 14 11 10 13 15 14 10 8 7 6 5 6 8 6 3 4 5 5 7 10 10 11 11 11
12 9 4 5 nan nan 5 3 2 4 8 8 2 8 9 8 12 10 8 8 11 10 7 2 6 6 5 5 5 7 10 7 5 6 6 5 4 4 4 5 5 5 6 5 5 5 5 5 6 7 8 9 8 9 9 11 12 11 11 11 11 12 12 14 14 14 14 14 13 13 12 13 13 14 14 14 15 15 14 14 14 14 12 11 9 9 9 9 9 9 11 10 11 11 11 12 13
15 6 6 9 10 10 6 4 6 6 2 4 3 2 3 8 8 12 5 3 7 6 6 3 8 10 10 8 5 4 8 7 6 6 7 7 6 2 3 4 5 6 6 6 5 4 5 6 6 7 8 9 9 9 9 10 10 10 10 10 10 11 12 13 14 14 14 14 13 13 13 12 13 13 14 14 15 14 14 14 14 13 12 12 12 10 11 11 11 12 12 11 13 13 12 14 14
nan nan nan 8 10 nan 8 5 7 8 3 2 8 4 6 5 6 12 9 10 11 9 9 4 5 10 nan 11 9 5 7 7 7 7 7 6 5 2 1 3 3 4 6 6 6 5 5 5 6 7 7 9 9 9 9 10 11 11 10 10 9 10 12 13 14 15 15 14 14 14 13 13 13 13 13 13 14 14 13 14 14 14 13 12 13 13 13 14 14 14 14 14 14 13 13 14 15
nan nan nan nan nan 9 5 6 7 6 6 3 3 3 2 4 3 11 8 11 11 9 9 5 3 5 9 10 11 10 7 7 7 6 6 6 6 4 2 2 3 4 5 6 6 5 5 4 5 6 8 8 10 9 9 10 11 11 11 9 9 10 11 13 14 14 14 14 14 14 14 13 12 12 12 12 14 13 14 14 14 14 14 14 15 15 16 17 17 16 17 17 17 16 15 15 15
nan nan nan nan nan nan nan 5 6 7 8 7 2 5 4 5 9 8 7 10 14 10 9 5 5 6 4 6 9 9 7 5 4 4 3 nan 2 0 2 3 2 3 3 5 7 6 6 4 4 6 8 8 10 9 9 10 10 11 10 10 9 9 11 12 13 14 14 14 14 13 13 12 12 12 11 12 12 13 14 14 15 15 16 16 16 17 18 18 18 18 18 18 18 17 16 16 15
nan nan nan nan nan nan nan 6 6 8 7 6 3 5 6 9 8 11 9 11 14 10 10 4 6 7 5 6 6 8 9 8 6 5 5 nan 1 2 1 2 2 2 3 3 6 8 7 6 5 6 8 9 9 8 9 10 10 10 10 10 10 10 11 12 12 13 14 14 13 12 12 11 12 11 11 12 11 12 13 14 15 16 16 17 16 18 18 18 19 19 19 20 19 19 18 17 16
nan nan nan nan nan nan nan 5 7 10 9 7 4 3 5 8 7 8 8 10 12 9 8 2 6 8 5 5 4 5 10 11 9 4 2 nan 1 1 1 3 3 3 3 3 6 8 8 6 7 8 9 8 8 8 9 9 9 10 10 10 11 10 11 12 13 13 14 13 12 11 10 10 11 11 11 11 11 11 12 14 15 16 18 17 16 18 18 19 19 20 21 21 21 20 19 18 16
nan nan nan nan nan nan 6 11 11 13 11 5 8 7 7 9 12 10 5 8 10 6 7 1 4 7 5 6 5 3 7 8 7 6 7 6 3 2 2 2 2 3 2 3 6 8 7 6 7 9 9 9 8 7 9 9 9 9 10 11 11 11 11 12 13 13 13 12 12 11 10 9 10 10 10 10 10 10 11 13 14 16 18 18 18 18 18 18 19 20 20 21 22 21 19 17 16
nan nan nan nan 17 16 10 10 8 10 10 8 10 10 10 10 14 12 8 10 10 7 4 1 5 6 5 6 4 3 5 8 6 6 8 5 3 2 2 3 2 2 5 3 4 7 6 6 8 9 9 9 7 7 9 9 9 9 10 11 11 11 12 12 12 13 12 12 11 10 9 9 9 10 10 10 9 9 10 11 15 15 17 18 18 18 18 17 16 18 18 20 19 18 18 17 17
nan nan nan 18 18 15 12 15 10 12 10 8 6 11 15 16 17 14 11 10 10 8 5 2 2 5 5 nan nan nan 5 7 7 7 5 4 4 3 3 4 4 4 5 5 3 5 8 8 10 11 9 9 8 8 8 9 9 9 10 11 11 11 12 12 12 12 11 11 10 10 9 9 8 9 9 9 8 9 9 11 14 15 16 16 16 15 15 14 15 16 17 18 19 18 18 17 16
nan nan nan 15 17 15 14 15 11 16 13 5 13 15 nan 17 16 13 13 10 7 6 5 3 2 4 5 nan nan nan nan 7 9 8 7 5 4 3 4 5 4 4 5 4 2 3 7 8 10 12 9 9 8 8 9 9 8 8 9 11 11 11 12 12 12 11 11 10 9 9 8 8 7 8 8 7 8 8 9 11 13 14 14 14 13 13 12 13 13 14 16 16 18 17 16 17 16
nan nan nan nan 14 nan 16 19 13 17 15 9 15 19 nan nan 13 9 12 11 9 5 4 5 4 3 5 5 nan nan nan nan nan 9 8 6 5 4 4 4 4 4 3 3 2 3 6 8 9 10 9 8 9 9 9 8 8 8 9 10 11 11 11 12 12 11 10 9 8 8 8 8 6 6 7 7 7 9 9 11 13 13 12 11 12 11 11 12 13 13 15 16 16 18 17 16 15
nan nan nan nan 18 nan 19 19 14 19 17 12 12 15 nan nan 13 9 9 8 9 6 5 5 5 4 3 nan nan nan nan nan nan nan nan 5 5 5 4 3 2 3 4 4 3 2 6 9 8 9 8 7 8 9 9 8 8 8 8 9 9 10 11 12 11 11 10 9 8 7 7 7 5 5 6 6 7 8 9 11 12 11 9 9 11 12 12 13 13 14 15 16 17 17 17 16 14
nan nan nan nan nan 19 21 22 15 19 18 14 13 17 16 nan 16 11 9 7 7 7 5 5 6 5 3 2 5 7 nan nan nan nan nan nan nan 5 5 3 3 4 4 3 2 1 3 8 10 11 10 8 8 8 9 9 8 8 9 9 10 10 11 10 10 9 9 9 8 7 6 7 5 6 5 6 6 8 9 10 10 9 8 9 10 12 13 13 14 14 16 17 18 17 17 14 14
nan nan nan nan nan 22 23 22 17 19 20 17 15 16 18 20 16 13 10 7 6 5 3 3 5 6 6 2 2 6 nan nan nan nan nan nan nan nan 5 3 3 4 4 3 3 2 3 8 11 11 11 10 9 8 9 9 8 8 9 9 10 11 11 10 9 8 8 7 7 6 5 7 6 6 5 5 6 7 8 9 9 8 9 9 10 11 13 13 13 14 15 17 17 16 15 15 14
nan nan nan nan nan nan nan 21 22 16 20 18 17 15 15 16 15 15 11 9 7 7 7 5 4 5 6 5 2 2 5 nan nan nan nan nan nan nan 5 3 2 3 4 3 4 3 3 8 11 13 13 11 11 10 9 10 9 8 8 10 11 12 11 10 9 8 7 6 6 5 5 6 7 6 6 6 6 6 7 8 7 8 8 8 9 10 12 13 12 13 15 16 17 13 13 13 12
nan nan nan nan nan nan nan nan nan 16 21 16 15 15 17 20 18 15 12 13 13 12 8 6 5 4 4 5 3 1 3 5 nan nan nan nan nan nan nan 5 3 2 4 3 4 3 3 6 10 11 13 12 12 11 10 10 10 10 11 9 10 10 10 10 9 8 7 6 5 5 4 5 5 6 6 6 6 7 7 7 7 7 8 8 8 10 11 11 11 11 13 14 13 12 11 12 11
nan nan nan nan nan nan nan nan nan 19 20 21 20 22 21 20 20 17 16 14 12 11 11 8 5 5 5 5 3 1 2 nan nan 4 nan nan nan nan nan 5 4 3 4 4 3 4 3 6 9 12 15 14 12 12 11 11 10 9 9 9 9 9 9 8 9 9 7 5 3 3 4 4 5 6 6 6 7 7 7 8 8 7 7 9 9 10 11 11 10 10 11 11 11 9 9 11 11
nan nan nan nan nan nan nan nan nan 21 20 26 27 21 18 18 18 18 16 13 13 12 10 10 8 7 6 5 5 3 3 3 5 nan nan nan nan nan nan 4 4 4 3 4 3 4 4 5 10 13 15 14 13 12 12 10 10 8 7 8 7 9 10 8 7 7 5 3 3 3 4 4 5 6 6 6 6 8 8 8 9 9 8 9 10 11 11 11 10 9 9 9 10 8 8 9 11
nan nan nan nan nan nan nan nan nan 24 22 25 nan 20 nan nan nan 16 15 13 14 14 14 15 12 7 4 3 3 3 1 2 4 4 nan nan nan nan nan 3 4 3 3 3 4 4 4 6 11 12 15 15 13 12 10 10 8 8 8 6 6 7 7 8 9 10 7 5 5 5 5 5 5 6 7 6 6 7 8 9 9 10 10 9 9 10 11 12 10 9 9 7 7 8 8 9 9
nan nan nan nan nan nan nan nan nan 27 26 nan nan nan nan 18 19 19 16 14 16 16 15 14 12 12 9 9 6 4 2 1 3 nan nan nan nan nan nan 2 3 4 2 2 3 3 4 5 10 11 14 14 13 11 8 7 7 7 7 9 9 11 13 11 10 9 7 7 7 6 6 5 6 7 8 7 6 7 8 8 9 10 10 10 9 10 10 11 10 9 8 7 7 7 7 9 8
nan nan nan nan nan nan nan nan nan nan nan nan nan nan nan nan 15 15 19 16 12 15 11 9 8 8 6 4 2 2 3 3 2 nan 4 nan nan nan nan 3 3 3 2 2 3 3 4 7 10 12 15 16 13 11 8 6 6 6 6 7 8 9 9 9 7 6 7 6 6 7 7 7 7 8 8 7 7 6 7 8 8 9 10 10 10 10 11 11 10 10 8 8 7 6 6 6 8
nan nan nan nan nan nan nan nan nan nan nan nan nan nan nan 25 19 19 18 13 11 14 8 6 7 8 6 4 4 3 2 2 3 3 6 4 nan nan nan 3 3 3 2 3 4 2 3 6 8 10 14 15 13 12 9 8 7 8 7 nan nan 7 6 8 7 7 5 6 6 5 6 7 7 7 7 7 6 6 6 7 7 8 9 8 10 9 10 11 11 10 8 7 6 4 5 6 8
nan nan nan nan nan nan nan nan nan nan nan nan nan nan nan nan nan 20 17 14 11 9 6 3 5 7 7 5 2 3 3 2 2 1 4 5 nan 5 5 3 1 2 2 3 4 4 2 4 8 9 14 14 12 11 10 9 7 8 nan nan nan nan 7 6 5 6 7 7 6 6 6 7 7 8 7 6 6 6 5 6 6 6 7 7 8 10 10 10 10 10 9 7 5 5 4 4 8
nan nan nan nan nan nan nan nan nan nan nan nan nan nan nan nan 22 23 20 17 10 2 1 2 4 6 7 6 4 3 3 3 3 1 3 6 3 3 nan 2 2 3 3 2 4 5 3 5 7 10 13 14 12 9 9 9 8 8 nan nan nan nan nan 7 7 7 6 7 6 8 7 7 8 8 7 6 5 5 5 5 5 6 6 7 8 8 9 8 9 10 9 7 6 4 4 4 5
nan nan nan nan nan nan nan nan nan nan nan nan nan nan nan nan nan 25 20 14 4 1 2 3 4 6 6 5 4 3 3 2 3 3 2 6 6 1 1 1 3 5 3 2 3 6 4 5 6 8 12 15 12 9 8 8 8 8 nan nan nan nan 8 9 8 6 6 6 6 7 7 8 8 7 7 6 5 5 4 5 5 5 6 6 7 8 7 8 9 9 9 8 6 6 4 4 6
nan nan nan nan nan nan nan nan nan nan nan nan nan nan nan nan nan 18 17 7 1 3 5 4 5 6 6 5 4 1 2 1 1 2 1 5 8 5 3 1 4 4 4 4 2 3 4 3 3 6 10 15 13 10 8 7 8 7 6 nan nan nan nan 8 8 8 8 7 7 7 7 8 7 7 7 7 6 5 4 4 4 5 5 5 6 6 7 7 8 8 8 7 6 6 5 5 6
nan nan nan nan nan nan nan nan nan nan nan nan nan nan nan nan nan 22 17 22 19 10 5 4 8 8 5 4 3 1 1 3 2 1 1 4 7 7 4 3 4 6 6 7 4 2 4 3 3 4 10 14 14 12 9 8 8 6 5 nan nan nan nan nan 6 6 6 5 5 5 7 8 8 9 8 7 7 6 5 5 4 4 5 5 6 7 7 7 7 7 7 7 7 5 4 5 6
nan nan nan nan nan nan nan nan nan nan nan nan nan nan nan nan nan nan nan nan nan 25 23 19 11 7 4 2 1 1 3 3 3 2 2 4 5 5 4 3 3 5 7 8 6 2 3 4 2 3 8 12 14 13 10 8 8 6 4 3 nan nan nan nan 7 7 6 5 6 6 7 7 8 7 7 6 5 3 4 4 4 4 5 6 7 6 8 6 6 6 7 8 7 6 5 5 7
nan nan nan nan nan nan nan nan nan nan nan nan nan nan nan nan nan nan nan nan nan nan nan 23 18 13 8 5 4 4 4 4 5 4 1 1 3 4 4 3 3 3 5 7 nan 3 3 5 4 3 6 11 14 14 11 10 7 6 5 5 nan nan nan nan nan 7 7 7 7 6 5 5 5 4 4 4 4 3 3 3 4 5 6 6 6 7 7 7 6 6 7 8 9 8 6 6 7
nan nan nan nan nan nan nan nan nan nan nan nan nan nan nan nan nan nan nan nan nan nan nan nan nan 13 10 9 7 3 4 4 6 6 4 2 1 4 5 4 2 1 3 5 4 3 3 5 6 4 7 11 14 13 13 10 10 8 7 6 nan nan nan nan nan 7 7 7 7 6 5 5 5 4 3 4 4 3 2 3 3 4 5 6 7 7 8 7 7 6 7 9 9 7 7 6 7
nan nan nan nan nan nan nan nan nan nan nan nan nan nan nan nan nan nan nan nan nan nan nan nan nan nan 12 9 4 1 3 5 5 5 6 4 3 5 6 5 4 3 3 3 5 4 3 4 6 6 6 10 13 14 13 12 11 11 9 7 7 8 8 nan nan nan 8 7 6 6 5 5 4 5 5 5 4 3 3 3 4 5 5 6 7 7 7 7 7 7 8 8 9 6 6 7 7
nan nan nan nan nan nan nan nan nan nan nan nan nan nan nan nan nan nan nan nan nan nan nan nan nan nan 20 8 3 1 0 2 3 4 7 7 6 5 5 6 6 4 3 3 5 6 6 5 7 8 9 11 12 14 14 15 13 12 9 8 9 9 7 nan nan nan nan nan 8 7 7 5 6 7 6 7 6 4 4 4 4 5 5 6 7 7 7 7 7 7 7 6 7 6 6 8 7
nan nan nan nan nan nan nan nan nan nan nan nan nan nan nan nan nan nan nan nan nan nan nan nan nan nan nan 21 11 4 1 2 2 4 8 8 7 5 5 5 6 6 5 4 5 7 8 7 7 8 10 10 13 16 17 17 15 13 11 10 9 8 7 nan nan nan nan nan nan 9 9 9 7 7 7 8 6 5 4 4 5 6 6 6 7 8 7 7 6 7 7 7 7 5 7 7 7
nan nan nan nan nan nan nan nan nan nan nan nan nan nan nan nan nan nan nan nan nan nan nan 42 nan nan 36 nan 25 13 5 4 4 3 4 7 7 5 5 4 5 6 6 5 6 9 10 8 7 7 8 10 13 17 18 19 17 16 14 11 9 9 9 9 nan nan nan nan nan nan 7 8 10 10 9 8 8 6 6 5 6 6 7 7 8 8 8 7 6 6 6 7 6 5 6 8 7
nan nan nan nan nan nan nan nan nan nan nan nan nan nan nan nan nan nan nan nan nan nan nan 44 43 40 39 35 nan 20 9 4 2 1 1 2 4 5 6 8 8 7 6 7 8 9 10 10 9 7 10 14 15 15 17 18 18 18 16 15 13 12 11 10 10 nan nan nan nan nan nan 8 8 10 9 9 8 7 6 6 8 8 7 8 8 9 8 8 7 6 6 7 6 5 6 7 7
nan nan nan nan nan nan nan nan nan nan nan nan nan nan nan nan nan nan nan nan nan 45 nan 43 44 44 42 41 35 nan 14 8 5 2 1 1 3 5 8 12 12 11 10 10 8 7 8 10 9 9 9 12 13 14 17 19 20 19 18 16 14 14 12 nan nan nan nan nan nan nan nan nan 12 10 10 9 8 7 7 7 8 8 7 7 8 9 9 9 8 7 7 7 6 5 5 6 6
nan nan nan nan nan nan nan nan nan nan nan nan nan nan nan nan nan nan nan nan nan nan 45 45 47 47 48 44 nan nan 18 14 12 9 9 6 7 9 12 15 15 13 11 9 8 8 8 8 9 10 8 9 13 15 17 19 21 21 18 18 17 16 15 nan nan nan nan nan nan nan nan nan nan 9 11 10 8 9 9 8 9 8 7 8 9 9 10 10 9 8 8 8 7 6 5 6 5
Wind_Direction
329 nan nan nan nan nan nan nan nan 317 313 nan nan nan 324 306 323 82 143 149 157 151 138 138 177 126 108 92 nan 36 129 nan nan nan nan nan 64 20 32 25 22 20 12 29 51 59 59 51 5 341 334 334 339 347 3 17 22 20 17 16 17 26 46 78 127 113 82 75 57 51 77 78 80 70 58 78 137 141 162 228 158 72 253 206 204 208 3 347 4 6 15 2 343 324 306 312 313
nan nan nan nan nan nan nan nan nan nan nan nan nan 318 317 302 319 111 137 142 153 148 134 144 173 178 171 268 350 40 144 150 111 57 61 12 348 76 52 24 26 17 18 30 52 65 64 55 358 343 338 338 347 356 14 29 30 34 32 31 27 40 56 63 78 91 113 132 145 154 130 104 77 88 127 311 235 73 293 242 176 305 328 333 337 315 317 307 25 14 35 19 347 321 317 324 320
nan nan nan nan nan nan nan 291 nan 307 nan nan nan 330 306 319 333 155 150 156 154 153 154 150 161 147 122 108 139 112 80 156 317 7 7 346 339 55 55 40 35 24 13 41 54 62 70 45 354 345 344 346 354 0 18 30 29 34 32 33 30 33 37 43 58 78 119 148 154 144 112 94 93 65 15 272 295 50 268 302 345 330 309 291 253 237 259 310 83 59 59 17 326 343 334 340 340
nan nan nan nan nan nan 285 nan nan 306 nan nan nan 321 319 330 65 159 156 151 151 157 156 136 136 118 113 168 65 229 293 310 64 357 356 17 58 30 48 43 33 38 34 50 56 63 73 16 354 350 349 353 360 7 18 27 30 30 30 33 37 36 38 44 47 72 103 118 144 139 112 85 62 294 330 334 345 329 292 269 268 305 287 273 271 235 247 258 303 12 23 288 273 343 352 339 336
nan nan nan 282 nan nan nan 296 297 299 nan nan 318 318 332 346 121 150 149 141 142 148 156 141 142 129 121 80 79 80 34 312 355 58 15 45 21 28 36 39 35 34 39 52 61 65 56 353 354 349 352 356 3 11 20 26 28 29 33 41 41 39 35 40 42 57 67 73 87 100 129 213 304 331 358 331 310 303 278 310 279 294 295 302 301 286 295 309 9 23 337 329 351 346 350 349 345
nan nan nan 273 286 299 291 293 306 nan nan 306 318 330 334 347 137 145 144 155 148 157 153 156 133 83 136 123 110 85 339 14 10 46 29 357 1 24 17 39 41 36 49 73 78 82 65 359 353 350 353 359 5 10 15 20 24 29 38 42 40 38 38 38 46 53 52 52 147 216 219 242 284 303 282 275 273 270 278 281 298 240 248 247 201 214 217 48 15 21 326 342 359 351 347 347 357
nan 282 300 306 304 301 306 308 nan nan nan 319 322 337 345 80 143 137 147 151 150 159 140 155 211 212 143 102 162 142 85 356 9 21 73 335 351 25 13 37 37 30 66 86 96 92 61 2 357 351 352 360 5 6 9 14 22 29 40 49 50 42 45 49 51 53 57 69 211 216 213 217 234 261 272 282 287 277 293 293 255 228 185 151 160 66 29 350 349 347 327 319 342 359 345 343 354
283 279 312 nan nan 308 310 314 nan nan 315 324 321 342 347 133 140 133 139 140 121 129 130 134 142 162 143 117 97 98 120 90 307 321 346 328 348 28 18 26 24 32 52 96 104 100 24 5 6 357 357 1 4 6 9 16 22 36 42 51 59 57 59 59 59 66 72 155 202 203 207 208 214 250 258 262 261 274 270 255 233 204 158 141 66 99 205 229 214 232 305 320 347 0 343 345 348
276 301 302 312 306 312 317 nan nan nan 335 325 325 nan 233 152 140 143 159 146 142 134 131 124 132 158 119 163 118 96 106 333 302 331 353 328 350 28 42 24 12 28 71 100 110 115 94 13 22 8 2 4 4 7 13 20 25 35 45 52 65 73 69 71 72 82 99 149 207 198 204 193 204 232 245 222 157 307 274 267 232 200 83 83 105 160 210 220 207 213 348 358 354 358 8 345 346
268 290 304 312 305 nan nan nan nan 344 338 325 302 320 201 158 139 149 154 154 138 129 131 137 138 147 132 129 72 74 53 341 330 342 355 332 351 32 35 32 17 6 55 103 112 112 107 22 14 25 12 12 10 9 15 23 21 28 40 42 56 62 70 73 82 85 93 114 194 201 193 176 197 234 213 176 94 313 274 301 14 23 65 74 77 359 339 75 300 351 45 7 357 2 10 356 355
263 286 304 289 nan nan nan nan nan 347 334 317 283 242 169 157 143 155 143 149 136 134 136 131 168 164 123 122 116 96 25 343 347 348 348 338 3 25 45 47 37 26 41 77 87 106 100 95 17 23 22 15 17 15 18 25 19 23 34 39 50 60 72 74 86 83 86 89 105 145 185 146 185 185 166 115 109 82 68 62 54 45 50 61 62 75 325 345 4 248 347 8 351 355 6 4 349
251 267 280 nan nan nan 316 nan nan 348 325 nan 244 185 141 139 139 156 149 156 130 136 121 103 114 121 166 122 102 58 12 357 358 347 339 345 30 40 43 60 47 46 54 58 61 103 113 126 119 45 39 29 28 23 31 32 26 29 38 43 45 58 66 68 71 83 80 69 80 98 139 114 157 153 137 105 91 89 76 82 78 73 63 67 121 182 216 197 288 354 349 342 18 11 10 350 341
247 253 267 nan nan nan nan nan 6 345 333 330 227 158 137 136 138 151 148 152 127 143 117 115 18 113 138 129 111 56 16 15 5 347 337 4 36 55 55 51 55 51 60 71 48 84 100 117 128 107 86 34 32 36 41 41 42 43 48 46 54 58 59 66 66 70 69 69 66 71 66 82 49 80 79 97 101 100 84 88 90 80 76 115 156 190 210 216 195 138 110 14 24 20 25 5 356
244 247 260 250 nan nan 337 12 5 345 343 321 185 148 136 143 148 149 150 161 125 143 125 6 95 181 217 208 81 76 63 25 3 346 335 342 41 53 40 50 47 62 84 71 68 71 93 95 91 87 71 86 96 64 49 48 54 51 49 52 57 64 66 66 67 68 68 75 79 78 79 48 85 75 82 95 94 85 68 80 81 90 123 140 161 219 202 191 153 158 147 109 51 50 46 32 16
233 230 238 247 243 nan 340 359 6 353 358 17 144 143 147 151 153 154 150 172 158 147 161 152 58 138 54 11 22 51 50 25 4 336 313 336 23 43 42 49 56 83 113 91 85 31 41 80 102 107 108 111 118 122 119 85 54 55 52 55 63 71 72 71 73 79 82 84 88 92 100 55 64 80 93 98 95 79 69 93 106 132 134 144 158 229 209 207 164 153 157 112 63 52 47 41 36
233 226 229 219 222 nan 145 4 10 359 30 83 131 149 169 160 156 157 154 152 158 149 149 138 122 116 356 51 337 332 13 23 355 326 308 310 90 85 61 55 75 111 132 121 94 113 124 129 123 124 122 120 122 129 120 103 74 60 64 66 73 79 78 78 79 88 92 105 102 124 123 112 95 90 86 94 89 122 118 105 113 118 128 131 154 190 187 179 150 174 149 137 49 36 68 68 69
233 228 215 226 204 nan nan 2 4 33 34 91 137 147 163 161 161 165 149 153 182 155 151 149 131 133 10 212 313 315 355 16 336 332 315 321 105 106 100 93 94 121 133 114 122 132 150 146 127 126 122 121 128 131 128 110 97 72 84 78 80 83 89 101 99 95 100 109 111 99 114 120 124 115 112 111 115 109 117 116 112 114 106 126 143 154 131 175 185 196 134 147 151 156 118 96 48
242 235 221 195 210 nan 91 21 18 24 358 71 113 147 193 185 167 168 161 178 165 160 162 154 167 173 176 289 301 317 336 341 351 354 2 11 84 76 78 76 79 69 109 131 132 134 156 138 123 125 124 125 130 130 122 112 107 111 127 115 112 111 100 94 108 116 121 127 112 116 117 114 116 104 103 110 113 119 117 120 117 110 123 135 119 131 150 48 259 44 120 132 136 133 131 98 87
235 235 225 188 nan nan 201 100 343 352 54 326 227 188 206 192 194 162 174 165 173 178 171 191 201 210 234 283 319 324 323 347 4 14 2 3 40 26 57 82 93 91 103 131 141 136 144 139 129 131 127 124 126 125 120 117 121 123 124 119 117 113 114 114 120 122 127 122 117 117 115 116 116 111 105 103 106 112 108 109 96 109 106 102 92 117 101 73 94 94 89 114 129 133 105 97 89
228 227 212 175 186 nan 120 337 4 80 327 325 302 205 213 211 186 168 172 176 171 189 195 199 231 251 287 314 345 326 320 348 16 21 15 20 46 27 21 33 80 95 120 129 138 148 137 125 121 132 124 120 121 123 122 120 121 118 117 122 126 127 124 123 121 120 121 120 115 114 115 117 118 117 110 119 122 120 119 127 134 127 119 119 147 126 132 132 142 137 147 137 117 106 103 100 95
230 238 225 178 nan nan 157 260 246 316 338 348 27 200 220 207 196 172 197 198 160 163 155 290 317 312 320 333 355 333 320 345 17 26 24 34 64 91 70 54 68 100 130 147 148 134 123 115 125 133 132 124 122 120 115 115 115 114 116 121 126 128 125 124 121 119 116 116 114 114 115 118 119 117 117 116 116 117 116 117 117 116 111 111 114 107 103 105 111 114 114 116 112 112 105 99 97
218 207 191 166 166 170 165 227 275 280 227 359 53 324 194 200 190 169 183 167 129 136 154 200 310 318 331 336 347 338 320 342 12 26 26 21 20 56 118 139 148 141 138 134 122 130 109 109 120 135 135 130 125 118 111 101 107 110 111 113 121 127 126 124 122 117 115 114 112 112 116 118 117 115 115 115 115 114 115 111 110 105 104 102 99 96 99 102 106 108 110 110 110 109 101 93 90
nan nan nan 159 142 nan 190 228 262 286 263 39 33 84 199 149 149 165 154 164 166 172 179 228 304 334 nan 329 325 341 328 343 12 23 21 21 29 42 60 107 87 101 122 132 135 139 128 115 132 145 136 136 133 121 117 112 115 110 111 110 115 123 125 125 123 120 117 114 113 110 112 111 109 107 110 111 113 110 110 107 102 99 94 91 92 92 99 99 101 104 106 107 110 110 102 95 87
nan nan nan nan nan 127 162 231 264 258 297 332 94 80 60 179 155 159 166 184 181 187 194 233 275 319 341 338 340 340 342 349 15 33 30 24 27 25 39 54 107 142 139 142 136 128 132 113 136 141 143 140 135 123 121 120 118 113 103 106 117 112 121 124 123 120 116 113 108 107 105 104 99 102 102 107 106 107 107 102 96 95 93 88 87 88 93 95 97 98 103 107 110 108 102 93 86
nan nan nan nan nan nan nan 245 271 268 244 246 268 45 78 164 178 188 179 195 183 193 192 236 294 330 3 352 342 336 333 341 3 34 63 nan 53 21 160 158 147 136 118 130 146 138 136 137 136 140 143 143 140 128 121 121 118 117 115 121 115 111 123 122 120 119 116 110 107 100 97 99 101 99 100 100 101 105 104 102 98 95 96 95 93 92 89 93 95 96 98 101 105 104 102 96 92
nan nan nan nan nan nan nan 233 275 289 257 265 274 115 140 145 201 182 203 189 178 187 187 254 312 338 359 11 359 338 331 335 335 8 31 nan 12 340 77 148 150 100 105 134 150 147 145 156 138 137 141 146 141 125 125 120 117 114 118 118 116 121 122 123 122 121 117 109 106 98 96 93 95 94 98 98 97 100 101 102 102 101 100 97 93 93 91 89 91 89 90 93 98 102 103 101 96
nan nan nan nan nan nan nan 252 259 270 263 298 275 158 148 118 130 156 188 190 177 185 187 219 330 344 346 13 23 344 330 336 338 335 9 nan 332 354 229 182 142 133 160 125 147 152 151 151 142 145 142 133 143 122 119 118 119 116 118 120 122 130 128 127 128 125 118 110 105 101 91 88 88 92 93 94 98 97 99 98 100 102 102 99 94 92 92 89 87 86 88 89 93 96 98 100 98
nan nan nan nan nan nan 204 233 253 255 249 244 242 194 177 131 136 124 153 176 164 186 185 178 349 346 347 2 18 357 333 322 311 333 1 357 345 316 284 205 156 162 142 116 147 160 155 143 142 144 140 138 132 118 114 115 116 118 120 121 123 130 130 131 130 127 119 113 109 104 91 83 80 84 85 93 95 96 96 101 103 104 101 102 101 98 97 94 90 89 86 86 88 91 98 101 101
nan nan nan nan 187 194 220 254 249 244 236 243 235 197 138 118 105 127 136 152 151 157 166 58 357 353 352 357 9 3 326 318 325 351 11 9 323 295 291 213 199 177 163 152 156 158 151 149 147 142 143 140 126 115 112 115 123 121 123 122 122 128 129 133 130 125 122 116 111 106 94 81 82 77 82 88 97 102 103 101 104 101 102 104 103 101 99 99 97 98 98 95 92 94 97 101 103
nan nan nan 183 188 186 213 224 230 216 219 247 208 146 118 102 111 131 133 138 146 148 136 78 3 359 1 nan nan nan 313 319 348 6 7 357 335 315 281 227 206 190 189 171 165 145 162 161 155 152 144 137 122 120 117 118 119 123 128 127 124 130 130 131 129 129 125 119 114 107 94 80 79 81 81 94 109 111 113 110 107 108 105 103 103 103 99 99 102 102 103 104 103 101 97 93 96
nan nan nan 186 191 181 210 222 234 209 199 213 170 150 nan 124 115 135 128 131 130 118 122 96 42 6 4 nan nan nan nan 346 357 360 359 345 325 295 274 239 223 208 199 183 114 143 168 171 162 154 148 142 125 117 110 113 121 124 127 128 126 130 133 132 131 133 127 124 122 111 97 84 74 73 82 94 111 118 118 115 115 109 111 107 104 100 93 100 101 100 102 107 104 104 101 94 91
nan nan nan nan 194 nan 208 228 232 219 202 182 183 159 nan nan 119 142 133 136 133 113 98 90 60 33 6 0 nan nan nan nan nan 359 358 345 329 312 298 266 244 232 225 196 184 169 169 178 170 160 157 144 127 118 112 116 117 123 129 128 132 129 134 131 130 130 130 130 123 113 103 94 78 73 82 99 115 122 122 118 117 119 113 113 110 104 102 105 103 102 105 97 101 107 107 105 98
nan nan nan nan 196 nan 214 216 223 224 232 202 183 168 nan nan 155 162 148 150 145 142 112 98 76 63 19 nan nan nan nan nan nan nan nan 341 337 325 316 285 256 249 240 228 210 185 171 180 173 167 160 140 132 122 121 125 130 124 126 127 129 130 129 127 130 136 134 129 121 112 106 98 88 77 86 103 116 122 123 121 123 121 123 119 119 119 115 110 108 110 109 109 100 96 98 102 101
nan nan nan nan nan 208 215 212 219 219 239 213 181 181 176 nan 169 177 164 162 170 155 127 120 113 111 87 346 345 340 nan nan nan nan nan nan nan 343 339 324 270 249 246 259 241 254 181 187 180 170 164 154 146 133 124 127 130 131 130 129 131 126 124 128 131 133 127 127 122 111 107 97 90 79 89 105 116 121 123 123 127 130 135 138 131 126 120 115 114 112 110 107 102 96 96 104 102
nan nan nan nan nan 206 216 222 208 224 219 220 201 181 163 189 193 184 180 174 183 169 153 127 122 117 105 111 347 347 nan nan nan nan nan nan nan nan 348 341 275 253 233 275 256 225 198 191 188 173 169 161 152 142 136 137 146 144 142 137 131 127 133 131 132 127 125 127 118 113 109 96 92 85 95 108 114 121 128 126 129 139 147 148 139 127 123 120 116 114 110 106 102 99 98 98 99
nan nan nan nan nan nan nan 213 216 240 227 214 218 202 177 196 205 199 194 188 189 194 197 176 142 120 110 126 131 2 332 nan nan nan nan nan nan nan 346 335 293 244 238 254 264 246 210 193 189 182 175 167 164 155 149 150 153 149 145 151 143 135 135 135 132 126 131 123 118 108 99 91 95 98 104 111 113 119 117 114 125 142 150 149 138 124 117 124 117 117 114 113 112 109 112 104 102
nan nan nan nan nan nan nan nan nan 228 219 207 212 202 197 202 214 215 210 208 199 200 200 185 153 120 98 114 139 61 313 334 nan nan nan nan nan nan nan 343 327 245 233 267 271 268 241 199 195 182 178 174 168 159 155 156 157 163 165 151 141 139 139 139 137 134 128 126 114 104 94 92 96 103 109 109 104 105 106 113 127 141 149 145 132 119 124 125 126 120 115 113 116 113 114 113 107
nan nan nan nan nan nan nan nan nan 216 219 196 202 204 199 203 214 220 221 217 204 197 191 183 165 140 127 97 124 158 253 nan nan 325 nan nan nan nan nan 349 323 274 205 245 278 289 269 219 196 186 183 176 171 161 160 161 160 160 171 160 166 158 148 143 137 131 125 131 121 108 105 104 102 106 114 109 108 101 107 112 118 126 138 139 136 138 133 130 135 133 128 122 120 112 108 110 107
nan nan nan nan nan nan nan nan nan 210 213 197 215 212 197 207 217 222 229 224 212 205 193 185 187 167 153 132 133 182 245 315 312 nan nan nan nan nan nan 348 336 332 281 284 289 280 279 229 201 193 183 179 174 170 171 163 158 164 173 174 175 170 148 141 133 132 140 146 146 138 135 123 116 119 118 114 110 105 104 110 114 126 132 134 134 137 135 126 136 141 145 132 125 118 110 103 105
nan nan nan nan nan nan nan nan nan 214 214 208 nan 216 nan nan nan 225 226 230 219 216 207 192 180 169 157 119 133 163 147 274 298 297 nan nan nan nan nan 344 349 337 272 277 293 306 270 215 206 200 187 180 179 177 172 169 161 161 171 187 176 172 154 158 172 176 173 185 162 159 156 141 131 131 127 122 121 111 103 102 115 118 120 123 124 125 128 121 130 136 139 136 127 117 121 113 115
nan nan nan nan nan nan nan nan nan 210 203 nan nan nan nan 223 223 214 220 229 222 222 215 196 177 166 173 186 176 157 125 215 264 nan nan nan nan nan nan 5 354 354 312 275 281 289 252 225 206 209 195 182 180 180 176 177 172 169 181 187 188 185 184 187 187 177 168 165 173 158 139 143 138 138 135 128 125 112 109 108 106 111 113 117 123 120 118 116 121 125 123 126 129 118 118 115 115
nan nan nan nan nan nan nan nan nan nan nan nan nan nan nan nan 215 225 231 230 215 221 220 196 166 148 167 180 167 144 151 187 242 nan 293 nan nan nan nan 25 13 3 335 262 259 293 286 232 209 206 200 189 180 178 179 176 157 157 175 195 190 178 184 183 165 155 165 161 141 156 157 141 140 143 142 135 130 128 111 104 104 106 110 114 115 114 116 118 115 113 110 113 122 123 125 133 121
nan nan nan nan nan nan nan nan nan nan nan nan nan nan nan 208 209 219 228 221 215 218 221 194 155 132 125 151 181 152 127 168 164 228 276 317 nan nan nan 41 37 3 347 262 252 280 310 254 222 212 205 197 185 176 177 171 172 168 166 nan nan 175 173 158 159 161 154 145 160 157 142 144 139 143 143 140 133 127 121 110 106 106 108 111 115 118 114 110 112 112 119 116 118 131 138 132 117
nan nan nan nan nan nan nan nan nan nan nan nan nan nan nan nan nan 220 231 229 220 219 217 181 134 123 100 110 145 149 127 119 118 77 283 305 nan 27 31 30 10 7 335 271 256 249 302 257 231 217 206 202 192 184 178 167 174 183 nan nan nan nan 157 157 165 165 160 163 159 145 158 144 147 149 149 140 135 131 125 113 111 114 109 114 113 109 110 116 117 117 114 118 128 128 128 125 116
nan nan nan nan nan nan nan nan nan nan nan nan nan nan nan nan 207 216 245 238 225 244 292 107 103 98 97 98 109 119 117 95 62 67 282 278 309 44 nan 351 350 354 1 312 255 238 235 228 225 215 206 205 198 194 187 172 180 195 nan nan nan nan nan 175 183 181 174 170 153 158 153 153 159 158 147 139 134 132 126 114 110 112 111 113 115 121 120 118 111 114 117 124 126 128 120 119 121
nan nan nan nan nan nan nan nan nan nan nan nan nan nan nan nan nan 220 225 224 222 359 34 70 61 59 67 85 101 120 156 136 55 29 296 265 261 212 139 298 340 10 3 306 247 233 232 221 220 219 204 201 201 200 195 188 188 203 nan nan nan nan 178 189 191 185 178 174 156 155 156 164 165 156 144 137 139 138 134 135 126 109 107 118 123 122 127 120 117 115 116 120 129 118 122 103 96
nan nan nan nan nan nan nan nan nan nan nan nan nan nan nan nan nan 219 241 208 122 193 184 131 79 68 62 61 62 130 189 224 332 10 299 260 257 256 234 36 25 8 354 350 318 241 236 234 228 218 201 200 204 203 203 200 200 207 211 nan nan nan nan 195 193 183 186 181 165 163 171 163 169 157 157 146 142 150 150 146 138 124 124 125 125 129 121 119 117 114 117 115 113 109 121 114 109
nan nan nan nan nan nan nan nan nan nan nan nan nan nan nan nan nan 195 181 185 187 180 159 90 70 63 67 77 79 74 231 229 241 282 273 260 260 268 288 15 19 15 5 6 9 265 230 224 225 214 200 200 203 206 206 206 210 210 206 nan nan nan nan nan 188 187 187 177 172 175 178 186 174 170 167 157 155 157 162 154 143 148 136 128 121 127 127 125 123 118 114 111 112 113 121 118 115
nan nan nan nan nan nan nan nan nan nan nan nan nan nan nan nan nan nan nan nan nan 180 180 171 140 116 112 127 79 202 218 225 213 201 252 261 272 285 309 353 358 8 12 4 4 341 228 219 226 214 196 199 203 210 210 214 217 217 216 206 nan nan nan nan 194 191 193 183 187 197 206 197 196 176 162 160 162 159 167 160 158 154 141 130 127 131 127 129 124 120 112 109 112 104 97 100 113
nan nan nan nan nan nan nan nan nan nan nan nan nan nan nan nan nan nan nan nan nan nan nan 181 178 165 152 167 206 218 226 218 194 188 210 270 265 269 291 300 336 11 7 352 nan 345 225 209 201 191 189 199 204 209 210 213 215 218 215 205 nan nan nan nan nan 199 195 189 198 203 218 218 215 193 184 152 180 198 174 159 158 145 139 137 136 132 133 133 130 120 112 106 104 107 112 97 106
nan nan nan nan nan nan nan nan nan nan nan nan nan nan nan nan nan nan nan nan nan nan nan nan nan 181 177 176 189 215 260 248 211 190 157 148 252 288 279 285 288 321 341 331 330 330 250 215 207 193 191 194 202 209 211 212 210 212 208 202 nan nan nan nan nan 203 204 203 198 201 206 217 217 213 203 186 212 210 180 181 162 154 148 144 149 149 147 143 135 128 114 106 115 116 109 109 106
nan nan nan nan nan nan nan nan nan nan nan nan nan nan nan nan nan nan nan nan nan nan nan nan nan nan 198 209 207 229 309 317 270 213 183 184 244 279 280 284 277 255 297 301 322 313 290 224 219 207 199 200 200 205 208 213 212 210 204 201 214 228 216 nan nan nan 203 205 204 200 201 210 209 219 221 226 221 218 197 177 171 155 159 156 157 154 154 150 137 122 117 116 112 125 108 96 98
nan nan nan nan nan nan nan nan nan nan nan nan nan nan nan nan nan nan nan nan nan nan nan nan nan nan 186 202 229 267 59 349 300 236 209 213 231 254 276 286 271 273 282 315 315 305 301 257 226 212 201 199 201 205 208 210 212 212 203 198 211 222 220 nan nan nan nan nan 201 195 195 194 209 214 222 230 233 223 202 188 173 169 168 169 170 163 159 150 140 129 121 117 112 116 106 91 98
nan nan nan nan nan nan nan nan nan nan nan nan nan nan nan nan nan nan nan nan nan nan nan nan nan nan nan 178 179 192 142 108 169 199 206 217 227 248 255 262 291 301 310 314 305 285 284 279 254 233 216 206 201 204 206 208 210 208 204 200 207 219 216 nan nan nan nan nan nan 198 194 198 198 209 216 222 232 231 207 189 180 175 179 182 173 174 167 155 151 139 126 120 123 132 110 113 101
nan nan nan nan nan nan nan nan nan nan nan nan nan nan nan nan nan nan nan nan nan nan nan 197 nan nan 186 nan 171 171 183 182 191 202 221 223 223 228 239 253 273 283 287 290 280 276 274 277 271 252 235 222 216 208 206 206 207 205 203 201 206 214 213 206 nan nan nan nan nan nan 203 192 201 207 209 216 224 222 217 193 186 187 191 183 183 178 179 171 162 150 142 133 137 132 114 107 105
nan nan nan nan nan nan nan nan nan nan nan nan nan nan nan nan nan nan nan nan nan nan nan 196 195 192 190 186 nan 180 196 199 195 194 337 252 235 232 233 237 236 243 255 259 272 271 290 291 290 261 229 224 220 214 212 210 208 205 202 201 199 209 217 215 211 nan nan nan nan nan nan 208 202 211 208 214 214 214 213 207 194 196 197 194 188 184 186 185 178 161 157 147 143 134 118 108 109
nan nan nan nan nan nan nan nan nan nan nan nan nan nan nan nan nan nan nan nan nan 207 nan 198 197 196 196 193 189 nan 198 220 222 187 123 325 244 219 227 235 230 223 226 239 253 283 290 288 298 292 265 240 226 220 217 212 213 207 205 201 200 206 214 nan nan nan nan nan nan nan nan nan 217 211 214 213 206 202 207 203 201 193 196 195 189 188 191 193 189 180 171 156 152 145 123 121 119
nan nan nan nan nan nan nan nan nan nan nan nan nan nan nan nan nan nan nan nan nan nan 209 206 201 200 202 201 nan nan 203 206 208 197 182 185 193 199 212 227 231 229 232 245 255 260 274 290 298 298 278 247 234 229 220 217 215 213 210 205 200 202 209 nan nan nan nan nan nan nan nan nan nan 219 223 214 204 201 203 208 203 192 192 196 195 192 200 201 194 189 181 177 162 151 139 130 129